Regional Weather Roundup
Issued by NWS Albany, NY

Home | Current Version | Previous Version | Text Only | Print | Product List | Glossary On
Versions: 1 2 3 4 5 6 7 8 9 10 11 12 13 14 15 16 17 18 19 20 21 22 23 24 25 26 27 28 29 30 31 32 33 34 35 36 37 38 39 40 41 42 43 44 45 46 47 48 49 50
000
ASUS41 KALY 290310
RWRALY

NEW YORK STATE HOURLY WEATHER ROUNDUP
NATIONAL WEATHER SERVICE ALBANY NY
1100 PM EDT FRI AUG 28 2015

NOTE: "FAIR" INDICATES FEW OR NO CLOUDS BELOW 12,000 FEET WITH NO
SIGNIFICANT WEATHER AND/OR NO OBSTRUCTIONS TO VISIBILITY.

NYZ032-033-038>043-046>054-057>066-NYZ062>081-290400-
EAST


CITY           SKY/WX    TMP DP  RH WIND       PRES   REMARKS
ALBANY         PTCLDY    62  53  72 CALM      30.20R
GLENS FALLS    CLEAR     59  54  83 CALM      30.18R
POUGHKEEPSIE   CLEAR     62  57  83 CALM      30.19R
NEWBURGH       PTCLDY    64  59  82 CALM      30.22
MONTGOMERY     CLEAR     60  55  83 CALM      30.21R
WHITE PLAINS   CLEAR     65  56  72 CALM      30.20S
ISLIP          MOCLDY    69  58  67 CALM      30.19R
NEW YORK CITY  PTCLDY    75  54  47 N3        30.19R
CENTRAL PARK   CLEAR     73  52  47 CALM      30.22S
$$

NYZ005>009-017-018-044>046-055-056-290400-
CENTRAL


CITY           SKY/WX    TMP DP  RH WIND       PRES   REMARKS
FULTON         CLEAR     55  53  93 CALM      30.19F
SYRACUSE       PTCLDY    59  57  93 E5        30.19S
ROME           CLEAR     57  55  93 E3        30.21S
ELMIRA         PTCLDY    54  53  97 CALM      30.21S
BINGHAMTON     CLEAR     61  54  77 SE3       30.23S
MONTICELLO     CLEAR     55  54  94 CALM      30.25S
$$

NYZ026>034-041>043-290400-
NORTH


CITY           SKY/WX    TMP DP  RH WIND       PRES   REMARKS
WATERTOWN      CLEAR     58  53  84 S3        30.18S
FORT DRUM      NOT AVBL
MASSENA        CLEAR     58  54  86 S5        30.17F
SARANAC LAKE   CLEAR     48  47  96 CALM      30.20S
PLATTSBURGH    CLEAR     61  56  83 MISG      30.16S
$$

NYZ001>004-010>016-019>021-290400-
WEST


CITY           SKY/WX    TMP DP  RH WIND       PRES   REMARKS
NIAGARA FALLS  CLOUDY    61  56  83 CALM      30.17F
BUFFALO        CLOUDY    62  55  77 S6        30.18F
DUNKIRK        MOCLDY    58  55  90 CALM      30.18F
JAMESTOWN      MOCLDY    59  54  82 CALM      30.22F
WELLSVILLE     PTCLDY    59  54  83 CALM      30.25S
ROCHESTER      PTCLDY    62  56  80 CALM      30.19F
PENN YAN       CLEAR     59  57  93 SW5       30.21R
$$

             KEY
       WCI = WIND CHILL INDEX
       VSB = VISIBILITY
       HX  = HEAT INDEX
$$


USA.gov is the U.S. government's official web portal to all federal, state and local government web resources and services.